EWG21W ELLX-EDDH

Flight info

Callsign EWG21W
Flight time 1h 54m
Altitude 33000
Route DIK N853 ONUNE/N0427F230 N853 HMM/N0454F350 M170 BASUM/N0451F360 Y850 PIXUR/N0454F350 Y850 MUBZI M105 RIBSO RIBSO7A
Aircraft A320/M-SDE3FGHIRWY/LB1

Departure

Time 2026-04-30 18:20
Airport Luxembourg-Findel International Airport (ELLX)

Arrival

Time 2026-04-30 20:15
Airport Hamburg Helmut Schmidt Airport (EDDH)
Time Latitude Longitude Altitude Speed Heading
2026-04-30 17:57 49.63372 6.21735 1231 ft 0 kts 330°
2026-04-30 18:11 49.63330 6.21779 1233 ft 1 kts 294°
2026-04-30 18:12 49.63333 6.21815 1233 ft 2 kts 242°
2026-04-30 18:13 49.63335 6.21822 1231 ft 0 kts 241°
2026-04-30 18:14 49.63314 6.21809 1231 ft 0 kts 195°
2026-04-30 18:15 49.63133 6.21830 1227 ft 11 kts 239°
2026-04-30 18:15 49.63067 6.21612 1227 ft 6 kts 243°
2026-04-30 18:16 49.62976 6.21312 1232 ft 17 kts 245°
2026-04-30 18:16 49.62871 6.20984 1249 ft 26 kts 245°
2026-04-30 18:17 49.62792 6.20746 1249 ft 24 kts 229°
2026-04-30 18:17 49.62671 6.20590 1250 ft 22 kts 219°
2026-04-30 18:17 49.62441 6.20133 1228 ft 29 kts 239°
2026-04-30 18:18 49.62346 6.19882 1220 ft 25 kts 240°
2026-04-30 18:18 49.62257 6.19640 1207 ft 21 kts 239°
2026-04-30 18:18 49.62170 6.19562 1200 ft 9 kts 147°
2026-04-30 18:18 49.62118 6.19621 1200 ft 10 kts 140°
2026-04-30 18:19 49.62108 6.19699 1204 ft 6 kts 73°
2026-04-30 18:19 49.62149 6.19819 1211 ft 31 kts 61°
2026-04-30 18:19 49.62371 6.20408 1242 ft 93 kts 59°
2026-04-30 18:19 49.62788 6.21531 1228 ft 147 kts 60°
2026-04-30 18:20 49.63321 6.23000 1649 ft 156 kts 64°
2026-04-30 18:20 49.63862 6.24451 2408 ft 157 kts 64°
2026-04-30 18:20 49.64436 6.25966 2815 ft 176 kts 64°
2026-04-30 18:20 49.65083 6.27707 3169 ft 198 kts 64°
2026-04-30 18:21 49.65803 6.29659 3607 ft 222 kts 65°
2026-04-30 18:21 49.66603 6.31825 4101 ft 239 kts 64°
2026-04-30 18:21 49.67450 6.34103 4840 ft 250 kts 65°
2026-04-30 18:21 49.68328 6.36465 5635 ft 257 kts 64°
2026-04-30 18:22 49.69316 6.38810 6451 ft 267 kts 51°
2026-04-30 18:22 49.72818 6.40876 8004 ft 293 kts 354°
2026-04-30 18:22 49.74701 6.39732 8812 ft 302 kts 323°
2026-04-30 18:23 49.76074 6.37268 9645 ft 306 kts 303°
2026-04-30 18:23 49.77231 6.34485 10447 ft 309 kts 303°
2026-04-30 18:23 49.78421 6.31596 10794 ft 329 kts 303°
2026-04-30 18:23 49.79694 6.28503 10977 ft 353 kts 303°
2026-04-30 18:24 49.82508 6.21712 11485 ft 389 kts 304°
2026-04-30 18:24 49.84233 6.18461 12087 ft 394 kts 317°
2026-04-30 18:24 49.86385 6.15841 12744 ft 395 kts 330°
2026-04-30 18:25 49.88825 6.14028 13388 ft 395 kts 343°
2026-04-30 18:25 49.94250 6.12999 14629 ft 396 kts
2026-04-30 18:25 49.97019 6.13030 15226 ft 399 kts
2026-04-30 18:26 50.02611 6.13076 16401 ft 405 kts
2026-04-30 18:26 50.05440 6.13091 16963 ft 408 kts
2026-04-30 18:26 50.08292 6.13105 17524 ft 412 kts
2026-04-30 18:27 50.14057 6.13137 18636 ft 417 kts
2026-04-30 18:27 50.16927 6.13151 19094 ft 419 kts
2026-04-30 18:28 50.22797 6.13182 20048 ft 424 kts
2026-04-30 18:28 50.25755 6.13202 20492 ft 427 kts
2026-04-30 18:28 50.31695 6.13648 21369 ft 428 kts 12°
2026-04-30 18:29 50.34647 6.14384 21787 ft 430 kts 12°
2026-04-30 18:29 50.43538 6.16646 22956 ft 437 kts 12°
2026-04-30 18:30 50.49572 6.18184 23698 ft 441 kts 12°
2026-04-30 18:30 50.55548 6.19701 24321 ft 445 kts 12°
2026-04-30 18:31 50.58615 6.20479 24617 ft 447 kts 12°
2026-04-30 18:31 50.64777 6.22048 25208 ft 450 kts 11°
2026-04-30 18:32 50.70801 6.24404 25738 ft 449 kts 25°
2026-04-30 18:32 50.73577 6.26631 26004 ft 448 kts 34°
2026-04-30 18:32 50.78394 6.32844 26508 ft 449 kts 44°
2026-04-30 18:33 50.80690 6.36192 26746 ft 450 kts 44°
2026-04-30 18:33 50.85303 6.42937 27205 ft 453 kts 44°
2026-04-30 18:33 50.87616 6.46327 27486 ft 452 kts 44°
2026-04-30 18:34 50.89921 6.49707 27816 ft 451 kts 44°
2026-04-30 18:34 50.94486 6.56409 28449 ft 450 kts 44°
2026-04-30 18:34 50.96775 6.59778 28775 ft 449 kts 44°
2026-04-30 18:35 50.99056 6.63135 29102 ft 448 kts 44°
2026-04-30 18:35 51.01334 6.66507 29436 ft 447 kts 46°
2026-04-30 18:35 51.03391 6.70186 29757 ft 444 kts 54°
2026-04-30 18:36 51.07103 6.78015 30411 ft 443 kts 54°
2026-04-30 18:36 51.08955 6.81931 30696 ft 442 kts 54°
2026-04-30 18:36 51.12620 6.89664 31260 ft 440 kts 53°
2026-04-30 18:37 51.14463 6.93553 31548 ft 439 kts 53°
2026-04-30 18:37 51.16297 6.97439 31830 ft 438 kts 53°
2026-04-30 18:37 51.18124 7.01320 32119 ft 438 kts 54°
2026-04-30 18:37 51.19947 7.05203 32380 ft 437 kts 54°
2026-04-30 18:38 51.21763 7.09081 32641 ft 436 kts 54°
2026-04-30 18:38 51.23573 7.12954 32908 ft 435 kts 53°
2026-04-30 18:38 51.25378 7.16823 33177 ft 434 kts 53°
2026-04-30 18:38 51.27184 7.20688 33319 ft 434 kts 53°
2026-04-30 18:39 51.28968 7.24495 33346 ft 434 kts 53°
2026-04-30 18:39 51.32573 7.32214 33346 ft 433 kts 53°
2026-04-30 18:40 51.36595 7.39358 33352 ft 434 kts 39°
2026-04-30 18:40 51.41844 7.44090 33353 ft 436 kts 20°
2026-04-30 18:41 51.47689 7.47030 33356 ft 442 kts 18°
2026-04-30 18:41 51.53573 7.49966 33356 ft 443 kts 18°
2026-04-30 18:42 51.59452 7.52915 33356 ft 443 kts 19°
2026-04-30 18:42 51.68222 7.57332 33357 ft 442 kts 19°
2026-04-30 18:45 51.94190 7.82951 33366 ft 439 kts 35°
2026-04-30 18:45 51.96702 7.85783 33373 ft 440 kts 35°
2026-04-30 18:46 52.01718 7.91464 33375 ft 440 kts 35°
2026-04-30 18:46 52.06735 7.97154 33373 ft 440 kts 35°
2026-04-30 18:47 52.11751 8.02862 33366 ft 440 kts 35°
2026-04-30 18:47 52.16734 8.08542 33366 ft 440 kts 35°
2026-04-30 18:48 52.21750 8.14278 33382 ft 440 kts 35°
2026-04-30 18:48 52.26759 8.20039 33381 ft 441 kts 35°
2026-04-30 18:49 52.31744 8.25783 33389 ft 440 kts 35°
2026-04-30 18:49 52.36774 8.31585 33392 ft 440 kts 35°
2026-04-30 18:49 52.39248 8.34449 33080 ft 442 kts 35°
2026-04-30 18:50 52.41753 8.37349 32553 ft 442 kts 35°
2026-04-30 18:50 52.44265 8.40257 32035 ft 442 kts 35°
2026-04-30 18:50 52.46781 8.43178 31533 ft 443 kts 35°
2026-04-30 18:50 52.49300 8.46109 31034 ft 445 kts 35°
2026-04-30 18:51 52.51824 8.49051 30548 ft 445 kts 35°
2026-04-30 18:51 52.54327 8.51969 29994 ft 437 kts 35°
2026-04-30 18:51 52.56789 8.54838 29417 ft 430 kts 35°
2026-04-30 18:51 52.59205 8.57661 28884 ft 423 kts 36°
2026-04-30 18:52 52.61582 8.60440 28396 ft 415 kts 36°
2026-04-30 18:52 52.63912 8.63174 27920 ft 409 kts 36°
2026-04-30 18:52 52.66179 8.65836 27460 ft 403 kts 36°
2026-04-30 18:52 52.68445 8.68505 26996 ft 398 kts 36°
2026-04-30 18:53 52.70687 8.71152 26540 ft 394 kts 36°
2026-04-30 18:53 52.72923 8.73735 26057 ft 391 kts 33°
2026-04-30 18:53 52.75303 8.75876 25588 ft 388 kts 25°
2026-04-30 18:53 52.77811 8.77427 25177 ft 384 kts 18°
2026-04-30 18:54 52.80399 8.78400 24770 ft 380 kts 10°
2026-04-30 18:54 52.83023 8.78791 24370 ft 378 kts
2026-04-30 18:54 52.85601 8.78777 24042 ft 372 kts
2026-04-30 18:54 52.88176 8.78753 23599 ft 368 kts
2026-04-30 18:55 52.90727 8.78738 23108 ft 365 kts
2026-04-30 18:55 52.95783 8.78738 22285 ft 361 kts
2026-04-30 18:55 52.98249 8.79127 22022 ft 351 kts 11°
2026-04-30 18:56 53.03035 8.80223 21515 ft 345 kts 10°
2026-04-30 18:56 53.05407 8.80761 21388 ft 343 kts 10°
2026-04-30 18:56 53.07745 8.81295 21407 ft 344 kts 10°
2026-04-30 18:57 53.12453 8.80257 21411 ft 355 kts 333°
2026-04-30 18:57 53.14376 8.77655 21439 ft 362 kts 312°
2026-04-30 18:57 53.15632 8.74007 21436 ft 368 kts 290°
2026-04-30 18:58 53.16837 8.65670 21433 ft 371 kts 284°
2026-04-30 18:58 53.17382 8.61470 21431 ft 371 kts 284°
2026-04-30 18:58 53.17926 8.57268 21430 ft 371 kts 284°
2026-04-30 18:59 53.19009 8.48915 21426 ft 371 kts 284°
2026-04-30 19:00 53.20653 8.36304 21424 ft 371 kts 284°
2026-04-30 19:00 53.21197 8.32147 21417 ft 362 kts 284°
2026-04-30 19:00 53.22263 8.24005 21418 ft 358 kts 284°
2026-04-30 19:01 53.23330 8.15893 21422 ft 358 kts 284°
2026-04-30 19:01 53.23858 8.11891 21421 ft 358 kts 284°
2026-04-30 19:02 53.24931 8.03778 21423 ft 358 kts 284°
2026-04-30 19:02 53.26009 7.95664 21424 ft 358 kts 284°
2026-04-30 19:03 53.27089 7.87549 21419 ft 358 kts 283°
2026-04-30 19:03 53.28174 7.79491 21419 ft 358 kts 285°
2026-04-30 19:04 53.30651 7.72527 21418 ft 350 kts 323°
2026-04-30 19:04 53.35027 7.69582 21418 ft 340 kts
2026-04-30 19:05 53.39474 7.71531 21416 ft 332 kts 36°
2026-04-30 19:05 53.42363 7.77321 21024 ft 326 kts 68°
2026-04-30 19:06 53.44129 7.84291 20531 ft 323 kts 68°
2026-04-30 19:06 53.45014 7.87747 20287 ft 322 kts 67°
2026-04-30 19:06 53.46781 7.94608 19799 ft 319 kts 67°
2026-04-30 19:07 53.48508 8.01370 19335 ft 316 kts 68°
2026-04-30 19:07 53.49366 8.04744 19095 ft 314 kts 68°
2026-04-30 19:08 53.51076 8.11484 18625 ft 312 kts 68°
2026-04-30 19:08 53.52762 8.18167 18090 ft 309 kts 68°
2026-04-30 19:08 53.53598 8.21484 17827 ft 308 kts 68°
2026-04-30 19:09 53.55256 8.28079 17313 ft 305 kts 68°
2026-04-30 19:09 53.56082 8.31357 17054 ft 303 kts 68°
2026-04-30 19:09 53.56903 8.34618 16801 ft 302 kts 68°
2026-04-30 19:10 53.58524 8.41096 16420 ft 299 kts 68°
2026-04-30 19:10 53.60126 8.47512 16431 ft 299 kts 68°
2026-04-30 19:11 53.60934 8.50748 16432 ft 299 kts 68°
2026-04-30 19:11 53.62543 8.57212 16436 ft 299 kts 68°
2026-04-30 19:11 53.63346 8.60449 16435 ft 299 kts 68°
2026-04-30 19:12 53.64148 8.63684 16433 ft 299 kts 68°
2026-04-30 19:12 53.64947 8.66923 16438 ft 299 kts 68°
2026-04-30 19:12 53.65747 8.70157 16435 ft 299 kts 68°
2026-04-30 19:13 53.67344 8.76630 16436 ft 299 kts 68°
2026-04-30 19:13 53.68937 8.83110 16435 ft 299 kts 68°
2026-04-30 19:13 53.69721 8.86311 16438 ft 299 kts 68°
2026-04-30 19:14 53.70525 8.89594 16433 ft 299 kts 69°
2026-04-30 19:14 53.71307 8.92794 16437 ft 299 kts 68°
2026-04-30 19:14 53.72098 8.96039 16437 ft 299 kts 69°
2026-04-30 19:14 53.72889 8.99290 16438 ft 299 kts 69°
2026-04-30 19:15 53.73677 9.02538 16435 ft 299 kts 68°
2026-04-30 19:15 53.75254 9.09038 16436 ft 299 kts 68°
2026-04-30 19:15 53.76033 9.12244 16432 ft 289 kts 68°
2026-04-30 19:16 53.76777 9.15314 16431 ft 275 kts 68°
2026-04-30 19:16 53.77487 9.18243 16432 ft 265 kts 69°
2026-04-30 19:16 53.78868 9.23974 16435 ft 262 kts 69°
2026-04-30 19:17 53.79551 9.26826 16438 ft 262 kts 69°
2026-04-30 19:17 53.80910 9.32500 16439 ft 262 kts 69°
2026-04-30 19:17 53.81590 9.35358 16433 ft 262 kts 69°
2026-04-30 19:18 53.82027 9.39361 16433 ft 262 kts 96°
2026-04-30 19:18 53.80617 9.43825 16438 ft 271 kts 139°
2026-04-30 19:18 53.78897 9.45196 16437 ft 281 kts 167°
2026-04-30 19:19 53.76938 9.44997 16443 ft 290 kts 197°
2026-04-30 19:19 53.75126 9.43424 16438 ft 295 kts 207°
2026-04-30 19:19 53.71580 9.39888 16438 ft 296 kts 208°
2026-04-30 19:20 53.69957 9.37750 16430 ft 299 kts 232°
2026-04-30 19:20 53.69136 9.34609 16438 ft 300 kts 264°
2026-04-30 19:20 53.70532 9.28422 16432 ft 288 kts 327°
2026-04-30 19:21 53.72293 9.27029 16438 ft 278 kts 356°
2026-04-30 19:21 53.75841 9.28579 16263 ft 267 kts 33°
2026-04-30 19:22 53.79030 9.31746 15914 ft 265 kts 34°
2026-04-30 19:22 53.83054 9.37660 15402 ft 256 kts 73°
2026-04-30 19:23 53.81418 9.45614 14892 ft 265 kts 145°
2026-04-30 19:24 53.77770 9.46204 14560 ft 282 kts 200°
2026-04-30 19:24 53.76029 9.44628 14447 ft 285 kts 206°
2026-04-30 19:24 53.72601 9.41234 14435 ft 286 kts 207°
2026-04-30 19:25 53.68875 9.33929 14438 ft 293 kts 270°
2026-04-30 19:26 53.70542 9.28113 14437 ft 282 kts 330°
2026-04-30 19:26 53.74146 9.27163 14436 ft 263 kts 24°
2026-04-30 19:26 53.75773 9.28512 14436 ft 261 kts 33°
2026-04-30 19:27 53.78908 9.31596 14437 ft 261 kts 34°
2026-04-30 19:27 53.81968 9.34863 14430 ft 257 kts 47°
2026-04-30 19:28 53.82949 9.37322 14437 ft 253 kts 72°
2026-04-30 19:28 53.82664 9.43065 14285 ft 255 kts 120°
2026-04-30 19:29 53.79734 9.46248 13867 ft 268 kts 171°
2026-04-30 19:29 53.77873 9.45829 13654 ft 277 kts 200°
2026-04-30 19:30 53.72807 9.40934 13037 ft 279 kts 207°
2026-04-30 19:30 53.69746 9.37015 12617 ft 281 kts 238°
2026-04-30 19:31 53.69324 9.31733 12417 ft 280 kts 290°
2026-04-30 19:31 53.70287 9.28941 12435 ft 276 kts 319°
2026-04-30 19:31 53.74249 9.27264 12439 ft 256 kts 23°
2026-04-30 19:32 53.75839 9.28570 12437 ft 254 kts 33°
2026-04-30 19:32 53.77374 9.30057 12436 ft 255 kts 34°
2026-04-30 19:32 53.78384 9.31066 12440 ft 254 kts 34°
2026-04-30 19:32 53.79905 9.32599 12437 ft 255 kts 34°
2026-04-30 19:33 53.81420 9.34148 12434 ft 254 kts 38°
2026-04-30 19:33 53.82609 9.36267 12434 ft 248 kts 63°
2026-04-30 19:33 53.83106 9.39025 12437 ft 246 kts 88°
2026-04-30 19:33 53.82831 9.41868 12437 ft 248 kts 112°
2026-04-30 19:34 53.81351 9.44794 12434 ft 255 kts 147°
2026-04-30 19:34 53.80233 9.45564 12438 ft 261 kts 165°
2026-04-30 19:34 53.76707 9.44082 12441 ft 275 kts 207°
2026-04-30 19:35 53.75053 9.42448 12438 ft 276 kts 207°
2026-04-30 19:35 53.73424 9.40828 12436 ft 276 kts 207°
2026-04-30 19:35 53.71765 9.39182 12265 ft 275 kts 207°
2026-04-30 19:35 53.70302 9.37116 12084 ft 278 kts 234°
2026-04-30 19:36 53.69609 9.34104 11908 ft 279 kts 266°
2026-04-30 19:36 53.69894 9.30919 11737 ft 276 kts 297°
2026-04-30 19:36 53.72734 9.27237 11451 ft 260 kts 357°
2026-04-30 19:37 53.74491 9.27499 11437 ft 253 kts 24°
2026-04-30 19:37 53.76053 9.28818 11436 ft 251 kts 32°
2026-04-30 19:37 53.77569 9.30290 11435 ft 252 kts 33°
2026-04-30 19:37 53.79076 9.31791 11439 ft 252 kts 34°
2026-04-30 19:38 53.80584 9.33301 11440 ft 252 kts 33°
2026-04-30 19:38 53.82001 9.34942 11421 ft 248 kts 49°
2026-04-30 19:38 53.82895 9.37383 11438 ft 245 kts 74°
2026-04-30 19:38 53.83060 9.40205 11233 ft 242 kts 99°
2026-04-30 19:39 53.82382 9.42777 10898 ft 244 kts 129°
2026-04-30 19:39 53.81010 9.44479 10554 ft 248 kts 151°
2026-04-30 19:39 53.79433 9.45695 10201 ft 250 kts 154°
2026-04-30 19:39 53.77835 9.46842 9856 ft 249 kts 154°
2026-04-30 19:40 53.76243 9.47969 9519 ft 247 kts 154°
2026-04-30 19:40 53.74658 9.49084 9190 ft 246 kts 154°
2026-04-30 19:40 53.73082 9.50186 8846 ft 244 kts 154°
2026-04-30 19:40 53.71515 9.51277 8506 ft 243 kts 154°
2026-04-30 19:41 53.69978 9.52344 8227 ft 242 kts 154°
2026-04-30 19:41 53.68425 9.53417 7934 ft 240 kts 154°
2026-04-30 19:41 53.66884 9.54479 7597 ft 239 kts 154°
2026-04-30 19:41 53.65349 9.55534 7258 ft 237 kts 154°
2026-04-30 19:42 53.63823 9.56581 6931 ft 236 kts 154°
2026-04-30 19:42 53.62306 9.57618 6600 ft 234 kts 154°
2026-04-30 19:42 53.60802 9.58650 6320 ft 233 kts 154°
2026-04-30 19:42 53.59302 9.59686 6059 ft 233 kts 154°
2026-04-30 19:43 53.57805 9.60718 5804 ft 232 kts 156°
2026-04-30 19:43 53.56206 9.61055 5548 ft 237 kts 187°
2026-04-30 19:43 53.54708 9.59897 5300 ft 242 kts 219°
2026-04-30 19:44 53.52652 9.55368 4787 ft 244 kts 234°
2026-04-30 19:44 53.51712 9.53015 4533 ft 242 kts 234°
2026-04-30 19:44 53.50793 9.50710 4280 ft 240 kts 234°
2026-04-30 19:44 53.49869 9.48395 4057 ft 237 kts 234°
2026-04-30 19:45 53.48950 9.46098 4005 ft 236 kts 234°
2026-04-30 19:45 53.48031 9.43802 4006 ft 237 kts 234°
2026-04-30 19:45 53.47113 9.41503 4007 ft 237 kts 234°
2026-04-30 19:45 53.46197 9.39207 4005 ft 237 kts 234°
2026-04-30 19:46 53.45281 9.36909 4007 ft 237 kts 234°
2026-04-30 19:46 53.44367 9.34615 4004 ft 237 kts 233°
2026-04-30 19:46 53.43255 9.32694 4005 ft 232 kts 206°
2026-04-30 19:46 53.41733 9.32039 4003 ft 226 kts 173°
2026-04-30 19:47 53.40288 9.32883 4005 ft 221 kts 140°
2026-04-30 19:47 53.39607 9.34135 4006 ft 221 kts 118°
2026-04-30 19:47 53.39252 9.37470 4004 ft 223 kts 87°
2026-04-30 19:47 53.39396 9.40058 4009 ft 224 kts 84°
2026-04-30 19:48 53.39577 9.42652 4009 ft 224 kts 84°
2026-04-30 19:48 53.39761 9.45207 4008 ft 224 kts 84°
2026-04-30 19:48 53.39951 9.47830 4007 ft 224 kts 84°
2026-04-30 19:48 53.40136 9.50388 4003 ft 224 kts 84°
2026-04-30 19:49 53.40413 9.52952 4006 ft 225 kts 70°
2026-04-30 19:49 53.42269 9.57198 4007 ft 228 kts 51°
2026-04-30 19:49 53.43296 9.59222 4009 ft 228 kts 51°
2026-04-30 19:50 53.44317 9.61253 4009 ft 228 kts 52°
2026-04-30 19:50 53.45336 9.63284 4009 ft 228 kts 52°
2026-04-30 19:50 53.46357 9.65319 4007 ft 228 kts 52°
2026-04-30 19:50 53.47376 9.67354 4012 ft 228 kts 52°
2026-04-30 19:51 53.48382 9.69363 4011 ft 228 kts 51°
2026-04-30 19:51 53.49405 9.71407 3853 ft 228 kts 51°
2026-04-30 19:51 53.50422 9.73443 3588 ft 227 kts 51°
2026-04-30 19:51 53.51437 9.75474 3286 ft 226 kts 51°
2026-04-30 19:52 53.52428 9.77458 2981 ft 216 kts 51°
2026-04-30 19:52 53.53374 9.79356 2700 ft 208 kts 51°
2026-04-30 19:52 53.54277 9.81168 2451 ft 194 kts 52°
2026-04-30 19:52 53.55103 9.82825 2174 ft 176 kts 52°
2026-04-30 19:53 53.55838 9.84312 2298 ft 154 kts 52°
2026-04-30 19:53 53.56510 9.85679 2798 ft 155 kts 52°
2026-04-30 19:53 53.57207 9.87101 3044 ft 158 kts 52°
2026-04-30 19:53 53.57903 9.88522 3214 ft 158 kts 52°
2026-04-30 19:54 53.58596 9.89936 3424 ft 153 kts 52°
2026-04-30 19:54 53.59257 9.91286 3675 ft 148 kts 52°
2026-04-30 19:54 53.59941 9.92684 3925 ft 166 kts 52°
2026-04-30 19:54 53.60739 9.94324 4003 ft 191 kts 52°
2026-04-30 19:55 53.61591 9.96078 4012 ft 195 kts 52°
2026-04-30 19:55 53.62454 9.97853 4008 ft 196 kts 52°
2026-04-30 19:55 53.63338 9.99677 3998 ft 212 kts 52°
2026-04-30 19:55 53.64287 10.01647 4010 ft 219 kts 52°
2026-04-30 19:56 53.65249 10.03649 4013 ft 220 kts 52°
2026-04-30 19:56 53.66199 10.05627 4012 ft 220 kts 52°
2026-04-30 19:56 53.67160 10.07630 4008 ft 220 kts 52°
2026-04-30 19:56 53.67988 10.09772 4008 ft 217 kts 73°
2026-04-30 19:57 53.68019 10.12259 4196 ft 217 kts 108°
2026-04-30 19:57 53.67320 10.14521 4430 ft 219 kts 122°
2026-04-30 19:57 53.66309 10.16423 4694 ft 221 kts 147°
2026-04-30 19:57 53.64828 10.17146 4950 ft 229 kts 179°
2026-04-30 19:58 53.63308 10.16398 5028 ft 233 kts 212°
2026-04-30 19:58 53.62118 10.14518 5039 ft 236 kts 227°
2026-04-30 19:58 53.61063 10.12394 5039 ft 237 kts 229°
2026-04-30 19:58 53.60026 10.10237 5038 ft 237 kts 229°
2026-04-30 19:59 53.59009 10.08105 5040 ft 237 kts 229°
2026-04-30 19:59 53.57979 10.05940 5035 ft 237 kts 229°
2026-04-30 19:59 53.55920 10.01608 5036 ft 237 kts 229°
2026-04-30 20:00 53.54891 9.99443 5036 ft 237 kts 229°
2026-04-30 20:00 53.53862 9.97275 5038 ft 237 kts 229°
2026-04-30 20:00 53.52836 9.95113 5038 ft 237 kts 229°
2026-04-30 20:00 53.51804 9.92936 5038 ft 241 kts 229°
2026-04-30 20:01 53.49710 9.88517 5039 ft 244 kts 229°
2026-04-30 20:01 53.48653 9.86282 5039 ft 244 kts 229°
2026-04-30 20:01 53.47600 9.84054 5036 ft 244 kts 229°
2026-04-30 20:02 53.45486 9.79584 5034 ft 244 kts 229°
2026-04-30 20:02 53.44431 9.77351 5036 ft 244 kts 229°
2026-04-30 20:03 53.42324 9.72887 5033 ft 244 kts 229°
2026-04-30 20:03 53.41284 9.70679 5032 ft 244 kts 229°
2026-04-30 20:03 53.40231 9.68446 5031 ft 244 kts 229°
2026-04-30 20:03 53.39178 9.66211 5034 ft 244 kts 229°
2026-04-30 20:04 53.37986 9.64218 5029 ft 241 kts 216°
2026-04-30 20:04 53.36668 9.62480 5026 ft 241 kts 214°
2026-04-30 20:04 53.35338 9.60776 5020 ft 241 kts 214°
2026-04-30 20:05 53.32670 9.57378 5023 ft 241 kts 214°
2026-04-30 20:05 53.31490 9.55400 5012 ft 244 kts 238°
2026-04-30 20:05 53.31484 9.50241 5006 ft 227 kts 306°
2026-04-30 20:06 53.32657 9.48573 5011 ft 222 kts 342°
2026-04-30 20:06 53.34141 9.48297 5016 ft 214 kts 15°
2026-04-30 20:06 53.35572 9.48976 5016 ft 214 kts 23°
2026-04-30 20:06 53.36969 9.49818 5016 ft 213 kts 24°
2026-04-30 20:07 53.38360 9.50682 5021 ft 213 kts 24°
2026-04-30 20:07 53.39611 9.51927 5015 ft 207 kts 49°
2026-04-30 20:07 53.41473 9.55596 5027 ft 207 kts 53°
2026-04-30 20:08 53.42399 9.57437 5026 ft 207 kts 53°
2026-04-30 20:08 53.43315 9.59259 5028 ft 207 kts 52°
2026-04-30 20:08 53.44242 9.61105 5027 ft 207 kts 52°
2026-04-30 20:08 53.45168 9.62950 5033 ft 207 kts 53°
2026-04-30 20:09 53.46098 9.64804 4878 ft 207 kts 52°
2026-04-30 20:09 53.47024 9.66653 4622 ft 207 kts 52°
2026-04-30 20:09 53.48876 9.70351 4079 ft 207 kts 52°
2026-04-30 20:10 53.50710 9.74018 3552 ft 201 kts 52°
2026-04-30 20:10 53.51596 9.75793 3253 ft 195 kts 52°
2026-04-30 20:10 53.52451 9.77506 3004 ft 189 kts 52°
2026-04-30 20:11 53.54089 9.80791 2509 ft 178 kts 52°
2026-04-30 20:11 53.54850 9.82319 2272 ft 163 kts 52°
2026-04-30 20:11 53.55543 9.83709 2067 ft 148 kts 52°
2026-04-30 20:12 53.56806 9.86251 1680 ft 138 kts 52°
2026-04-30 20:12 53.57422 9.87491 1493 ft 138 kts 52°
2026-04-30 20:12 53.58033 9.88721 1306 ft 137 kts 52°
2026-04-30 20:13 53.58646 9.89958 1129 ft 139 kts 53°
2026-04-30 20:13 53.59259 9.91193 965 ft 140 kts 52°
2026-04-30 20:13 53.59886 9.92452 726 ft 140 kts 51°
2026-04-30 20:13 53.60498 9.93684 487 ft 134 kts 52°
2026-04-30 20:14 53.61080 9.94888 298 ft 133 kts 52°
2026-04-30 20:14 53.61698 9.96119 155 ft 137 kts 51°
2026-04-30 20:14 53.62283 9.97305 39 ft 120 kts 49°
2026-04-30 20:14 53.62702 9.98142 42 ft 54 kts 50°
2026-04-30 20:15 53.62907 9.98559 44 ft 44 kts 50°
2026-04-30 20:15 53.63072 9.98917 46 ft 33 kts 67°
2026-04-30 20:15 53.63090 9.99161 46 ft 11 kts 94°
2026-04-30 20:15 53.63087 9.99234 47 ft 0 kts 96°
2026-04-30 20:16 53.63086 9.99253 47 ft 6 kts 96°
2026-04-30 20:16 53.63085 9.99274 47 ft 0 kts 96°
2026-04-30 20:17 53.63084 9.99295 47 ft 0 kts 92°
2026-04-30 20:18 53.63085 9.99342 47 ft 9 kts 83°
2026-04-30 20:18 53.63088 9.99361 47 ft 0 kts 71°
2026-04-30 20:19 53.63119 9.99446 46 ft 15 kts 54°
2026-04-30 20:20 53.63185 9.99595 47 ft 17 kts 50°
2026-04-30 20:20 53.63218 9.99663 48 ft 0 kts 53°
2026-04-30 20:21 53.63252 9.99718 48 ft 8 kts 43°
2026-04-30 20:21 53.63290 9.99783 48 ft 7 kts 49°
2026-04-30 20:21 53.63343 9.99890 48 ft 18 kts 51°
2026-04-30 20:22 53.63426 10.00065 48 ft 19 kts 59°
2026-04-30 20:22 53.63377 10.00221 48 ft 16 kts 157°
2026-04-30 20:22 53.63275 10.00241 48 ft 11 kts 175°
2026-04-30 20:22 53.63243 10.00318 48 ft 9 kts 89°